Location: Quedlinburg
(51.7921°N, 11.1414°E)
Time: 00:43:14
(UTC+01:00)

AO-91 - Visible Passes

Search period start: 14 March 2026 00:00
Search period end: 24 March 2026 00:00
Orbit: 427 x 640 km, 97.5° (Epoch: 13 March)

Date Brightness Start Highest point End Pass type
(mag) Time Alt. Az. Time Alt. Az. Time Alt. Az.
14 Mar ? 21:20:45 10° NNE 21:22:29 23° NNE 21:22:29 23° NNE visible
14 Mar ? 22:56:03 10° NNW 22:57:51 17° NW 22:57:51 17° NW visible
15 Mar ? 21:11:19 10° NNE 21:13:05 23° NNE 21:13:05 23° NNE visible
15 Mar ? 22:46:21 10° N 22:48:27 19° NW 22:48:27 19° NW visible
16 Mar ? 21:01:52 10° NNE 21:03:39 22° NNE 21:03:39 22° NNE visible
16 Mar ? 22:36:40 10° N 22:39:01 22° NW 22:39:01 22° NW visible
17 Mar ? 20:52:26 10° NNE 20:54:11 21° NE 20:54:11 21° NE visible
17 Mar ? 22:27:00 10° N 22:29:33 25° NNW 22:29:33 25° NNW visible
18 Mar ? 20:43:00 10° NNE 20:44:40 20° NE 20:44:40 20° NE visible
18 Mar ? 22:17:20 10° N 22:20:03 29° NNW 22:20:03 29° NNW visible
19 Mar ? 20:33:35 10° NE 20:35:09 18° NE 20:35:09 18° NE visible
19 Mar ? 22:07:40 10° N 22:10:30 32° NNW 22:10:30 32° NNW visible
20 Mar ? 20:24:12 10° NE 20:25:35 16° NE 20:25:35 16° NE visible
20 Mar ? 21:58:00 10° N 22:00:57 37° NNW 22:00:57 37° NNW visible
21 Mar ? 20:14:52 10° NE 20:16:00 14° ENE 20:16:00 14° ENE visible
21 Mar ? 21:48:19 10° N 21:51:22 41° N 21:51:22 41° N visible
21 Mar ? 23:24:52 10° NW 23:26:11 11° NW 23:26:43 11° WNW visible
22 Mar ? 20:05:39 10° NE 20:06:22 12° ENE 20:06:22 12° ENE visible
22 Mar ? 21:38:39 10° N 21:41:44 44° N 21:41:44 44° N visible
22 Mar ? 23:14:36 10° NNW 23:16:40 13° NW 23:17:05 13° WNW visible
23 Mar ? 19:56:41 10° ENE 19:56:42 10° ENE 19:56:42 10° ENE visible
23 Mar ? 21:28:58 10° NNE 21:32:04 45° NNE 21:32:04 45° NNE visible
23 Mar ? 23:04:32 10° NNW 23:07:07 15° NW 23:07:25 15° WNW visible
